Notices

What's New in latest Release from April 7th, 2021:

- Updated Glossary, including Speed of Maximum Gust, and Total Hourly Precipitation

- Updated national and regional climate services offices contacts and prices information

- Addition of station inventory lists for 1981-2010, 1971-2000, and 1961-1990 Normals.

If you haven't already, please take our survey and provide feedback about our website: https://eccc.sondage-survey.ca/f/LanguageSelection.aspx?s=442ca660-fcf1-47c0-95a9-59707d6fd709

Hourly Data Report for May 27, 2020

TRENTON A
ONTARIO
Current Station Operator: DND

44°07'00.000" N
77°32'00.000" W
86.30 m
6158875
71621
YTR

Download Data

Hourly Data (May 2020)
Hourly Data Report for May 27, 2020
TIME
LST
Temp Definition
°C
Dew Point Definition
°C
Rel Hum Definition
%
Precip. Amount Definition
mm

Wind Dir Definition
10's deg

Wind Spd Definition
km/h
Visibility Definition
km
Stn Press Definition
kPa
Hmdx Definition


Wind Chill Definition


Weather Definition


00:00 20.5 16.4 77     0 24.1 100.82 25   Clear
01:00 19.7 16.1 80   4 4 24.1 100.80     Clear
02:00 18.6 15.3 81     0 24.1 100.76     Clear
03:00 18.6 15.4 82     0 16.1 100.77     Clear
04:00 18.0 14.9 82     0 12.9 100.77     Clear
05:00 17.8 15.0 84     0 16.1 100.80     Clear
06:00 19.9 16.5 81     0 19.3 100.84     Mainly Clear
07:00 20.9 15.8 73   23 8 19.3 100.89 25   Mainly Clear
08:00 24.8 18.1 66   14 4 24.1 100.89 31   Mainly Clear
09:00 25.2 16.2 57   21 11 24.1 100.88 30   Mainly Clear
10:00 25.3 16.3 57   22 11 24.1 100.86 30   Mostly Cloudy
11:00 25.7 16.3 56   22 17 24.1 100.85 31   Cloudy
12:00 26.3 16.6 55   22 22 24.1 100.84 31   Cloudy
13:00 27.5 16.5 51   21 13 24.1 100.80 32   Cloudy
14:00 27.9 15.5 47   21 13 24.1 100.76 32   Cloudy
15:00 28.2 15.7 47   21 11 24.1 100.72 33   Cloudy
16:00 29.1 16.2 46   21 8 24.1 100.67 34   Cloudy
17:00 28.7 15.7 45   20 8 24.1 100.62 33   Cloudy
18:00 27.2 15.4 48   18 8 24.1 100.62 31   Cloudy
19:00 26.4 15.1 50   19 4 24.1 100.64 30   Mostly Cloudy
20:00 24.0 15.3 58   18 5 24.1 100.63 28   Mostly Cloudy
21:00 21.9 15.4 67   19 5 24.1 100.67 26   Mostly Cloudy
22:00 22.2 14.6 62   18 5 24.1 100.68 26   Clear
23:00 21.4 14.4 64   19 9 24.1 100.69 25   Clear

Notes on Data Quality.

Legend

  • E = Estimated
  • M = Missing
  • NA = Not Available*
  • [empty] = Indicates an unobserved value
Date modified: